Location: Gleizolles
(44.4833°N, 6.7667°E)
Time: 14:28:59
(UTC+00:00)

Vanguard 1 - Pass Details

Date: 28 June 2024
Orbit: 650 x 3826 km, 34.3° (Epoch: 15 July)

Event Time Altitude Azimuth Distance (km) Brightness Sun altitude
Rises 07:38:40 0° 213° (SSW) 7,157 14.2 37.6°
Reaches altitude 10° 07:45:20 10° 202° (SSW) 5,597 13.9 38.8°
Maximum altitude 07:56:08 24° 158° (SSE) 3,503 13.5 40.7°
Drops below altitude 10° 08:03:21 10° 109° (ESE) 3,631 14.1 42.0°
Sets 08:06:30 0° 95° (E) 4,227 14.1 42.5°
